Regional Weather Roundup
Issued by NWS Glasgow, MT

Home | Current Version | Previous Version | Text Only | Print | Product List | Glossary On
Versions: 1 2 3 4 5 6 7 8 9 10 11 12 13 14 15 16 17 18 19 20 21 22 23 24 25 26 27 28 29 30 31 32 33 34 35 36 37 38 39 40 41 42 43 44 45 46 47 48 49 50
000
ASUS45 KGGW 292015
RWRGGW
HOURLY WEATHER ROUNDUP FOR NORTHEAST MONTANA
NATIONAL WEATHER SERVICE GLASGOW MONTANA
200 PM MDT SUN MAR 29 2015

NOTE: "FAIR" INDICATES FEW OR NO CLOUDS BELOW 12,000 FEET WITH NO
SIGNIFICANT WEATHER AND/OR OBSTRUCTIONS TO VISISBILITY.

NORTHEAST MONTANA


CITY           SKY/WX    TMP DP  RH WIND       PRES   REMARKS
GLASGOW        MOSUNNY   61  32  33 W15G23    30.01F
PLENTYWOOD       N/A     55  33  43 W13G21      N/A
WOLF POINT     SUNNY     62  36  37 W14G22    30.03F
JORDAN           N/A     60  32  34 W14G24    30.05F
WINNETT          N/A     58  28  32 SW13        N/A
SIDNEY         MOSUNNY   61  27  27 W14       30.04F
GLENDIVE         N/A     61  30  31 W15G21    30.06F
MALTA            N/A     62  32  32 W13G22      N/A
SCOBEY           N/A     56  30  37 W15G25    29.98F

FORT PECK REPORTS


CITY           SKY/WX    TMP DP  RH WIND       PRES   REMARKS
FORT PECK        N/A     52  38  58 S6          N/A
THE PINES        N/A     58  34  40 SW10        N/A

SOUTHEAST MONTANA


CITY           SKY/WX    TMP DP  RH WIND       PRES   REMARKS
BILLINGS       CLOUDY    58  19  22 W15       30.13F
MILES CITY     MOSUNNY   63  30  28 NW18G26   30.08F
BAKER          SUNNY     58  33  39 NW18G29   30.08F
LIVINGSTON     MOSUNNY   58  15  18 W18G28    30.14F

CENTRAL MONTANA


CITY           SKY/WX    TMP DP  RH WIND       PRES   REMARKS
HAVRE          CLOUDY    59  30  33 W25G32    30.00F
LEWISTOWN      CLOUDY    55  25  31 W12       30.10F
GREAT FALLS    CLOUDY    56  22  26 SW21G30   30.07F
CUT BANK       CLOUDY    50  28  42 SW31G39   30.02F
HELENA         CLOUDY    55  20  25 SE8       30.16F
BUTTE          MOSUNNY   51  18  27 CALM      30.19F
BOZEMAN        CLOUDY    52  20  28 CALM      30.20F

WESTERN MONTANA


CITY           SKY/WX    TMP DP  RH WIND       PRES   REMARKS
MISSOULA       CLOUDY    53  31  42 VRB3      30.24F
KALISPELL      NOT AVBL

NORTH DAKOTA


CITY           SKY/WX    TMP DP  RH WIND       PRES   REMARKS
WILLISTON      CLOUDY    58  33  39 W17       30.01F
DICKINSON      SUNNY     57  32  38 W18G28    30.02F
MINOT          MOSUNNY   55  24  30 W23G30    29.95F
BISMARCK       MOSUNNY   57  25  29 NW17G26   30.03F

SOUTHERN SASKATCHEWAN


CITY           SKY/WX    TMP DP  RH WIND       PRES   REMARKS
REGINA         MOSUNNY   50  37  62 W9        29.95F
ESTEVAN        MOSUNNY   55  32  41 NW21      29.97F
SWIFT CURRENT  MOSUNNY   57  30  35 SW18      29.89F



USA.gov is the U.S. government's official web portal to all federal, state and local government web resources and services.